EW1052 Weather Reports


Display with metric or nautical units.
time (UTC)temp
F
wind
direction
speed
MPH
gust
MPH
rain 1hr
in
rain 24hr
in
rain mn
in
humidity
%
barometer
mb
20260507231546 59 20 1.0 2.0 0.00 0.00 0.00 67 1015.0
20260507230032 59 43 0.0 1.0 0.00 0.00 0.00 67 1015.1
20260507224529 59 45 0.0 1.0 0.00 0.00 0.00 67 1015.1
20260507223029 59 54 0.0 0.0 0.00 0.00 0.00 67 1015.0
20260507221531 59 15 0.0 3.0 0.00 0.00 0.00 66 1015.0
20260507220025 59 160 0.0 0.0 0.00 0.00 0.00 66 1015.0
20260507214523 60 160 0.0 0.0 0.00 0.02 0.00 65 1014.9
20260507213028 60 159 0.0 1.0 0.00 0.02 0.00 64 1014.8
20260507211523 61 49 0.0 2.0 0.00 0.02 0.00 62 1015.0
20260507210021 61 59 1.0 2.0 0.00 0.02 0.00 61 1015.0
20260507204521 62 53 0.0 0.0 0.00 0.06 0.00 61 1015.0
20260507203025 61 78 1.0 3.0 0.00 0.06 0.00 62 1015.0
20260507201520 61 74 1.0 5.0 0.00 0.06 0.00 65 1015.0
20260507200028 62 64 1.0 3.0 0.00 0.06 0.00 62 1015.2
20260507194519 62 58 1.0 3.0 0.00 0.17 0.00 61 1015.3
20260507193019 62 137 0.0 0.0 0.00 0.17 0.00 61 1015.2
20260507191518 62 126 0.0 2.0 0.00 0.17 0.00 60 1015.3
20260507190018 62 238 0.0 0.0 0.00 0.17 0.00 59 1015.0
20260507184517 63 330 0.0 3.0 0.00 0.46 0.00 58 1014.9
20260507183030 64 33 0.0 2.0 0.00 0.46 0.00 58 1014.8
20260507181515 65 312 0.0 1.0 0.00 0.46 0.00 54 1014.7
20260507180020 66 297 0.0 4.0 0.00 0.46 0.00 53 1014.6
20260507174518 66 309 2.0 5.0 0.00 0.62 0.00 54 1014.5
20260507173014 67 287 3.0 7.0 0.00 0.62 0.00 54 1014.3
20260507171513 67 307 5.0 8.0 0.00 0.62 0.00 54 1014.2
20260507170016 68 300 5.0 8.0 0.00 0.62 0.00 55 1014.2
20260507164513 68 299 4.0 7.0 0.00 0.62 0.00 54 1014.2
20260507163011 70 307 3.0 6.0 0.00 0.62 0.00 52 1014.3
20260507161516 70 328 1.0 6.0 0.00 0.62 0.00 53 1014.2
20260507160010 69 295 3.0 7.0 0.00 0.62 0.00 52 1014.3
20260507154508 70 304 2.0 6.0 0.00 0.62 0.00 52 1014.2
20260507153011 70 267 3.0 6.0 0.00 0.62 0.00 52 1014.3
20260507151506 69 214 5.0 11.0 0.00 0.62 0.00 53 1014.4
20260507150006 69 323 2.0 7.0 0.00 0.62 0.00 56 1014.3
20260507144504 67 308 1.0 3.0 0.00 0.63 0.00 58 1014.6
20260507143006 68 308 0.0 6.0 0.00 0.63 0.00 55 1014.7
20260507141504 68 324 5.0 9.0 0.00 0.63 0.00 56 1014.8
20260507140002 68 312 1.0 8.0 0.00 0.63 0.00 58 1014.9
20260507134505 69 194 2.0 7.0 0.00 0.67 0.00 54 1015.0
20260507133102 69 110 2.0 6.0 0.00 0.67 0.00 54 1015.1
20260507131622 69 219 4.0 7.0 0.00 0.67 0.00 54 1015.2
20260507130157 67 191 3.0 10.0 0.00 0.67 0.00 55 1015.3
20260507124558 68 165 2.0 6.0 0.00 0.68 0.00 54 1015.4
20260507123105 68 298 2.0 7.0 0.00 0.68 0.00 56 1015.4
20260507121556 68 262 3.0 7.0 0.00 0.68 0.00 53 1015.5
20260507120052 67 314 4.0 9.0 0.00 0.68 0.00 56 1015.6
20260507114550 66 214 1.0 10.0 0.00 0.68 0.00 59 1015.7
20260507113049 66 168 4.0 9.0 0.00 0.68 0.00 54 1015.9
20260507111548 66 158 3.0 7.0 0.00 0.68 0.00 57 1016.0
20260507110100 65 297 3.0 8.0 0.00 0.68 0.00 62 1016.1
20260507104546 65 126 0.0 8.0 0.00 0.68 0.00 61 1016.2
20260507103041 63 255 4.0 10.0 0.00 0.68 0.00 64 1016.2
20260507101543 63 297 4.0 10.0 0.00 0.68 0.00 70 1016.4
20260507100040 62 63 0.0 10.0 0.00 0.68 0.00 69 1016.4
20260507094538 63 314 1.0 5.0 0.00 0.68 0.00 73 1016.4
20260507093036 61 6 4.0 10.0 0.00 0.68 0.00 74 1016.4
20260507091539 61 297 3.0 8.0 0.00 0.68 0.00 73 1016.4
20260507090039 61 342 5.0 7.0 0.00 0.68 0.00 76 1016.3
20260507084538 61 293 1.0 5.0 0.00 0.68 0.00 74 1016.4
20260507083037 61 335 4.0 7.0 0.00 0.68 0.00 75 1016.3
20260507081530 62 260 2.0 4.0 0.00 0.68 0.00 72 1016.2
20260507080029 60 207 0.0 4.0 0.00 0.68 0.00 78 1016.1
20260507074538 59 4 2.0 4.0 0.00 0.68 0.00 79 1016.1
20260507073024 58 318 3.0 5.0 0.00 0.68 0.00 81 1016.1
20260507071523 58 352 1.0 3.0 0.00 0.68 0.00 81 1016.0
20260507070022 58 324 1.0 3.0 0.00 0.68 0.00 76 1015.7
20260507064521 60 129 0.0 2.0 0.00 0.68 0.00 78 1015.7
20260507063016 58 311 0.0 1.0 0.00 0.68 0.00 83 1015.7
20260507061516 58 158 0.0 0.0 0.00 0.68 0.00 79 1015.7
20260507060018 56 193 0.0 3.0 0.00 0.68 0.00 82 1015.5
20260507054513 57 208 0.0 1.0 0.00 0.68 0.00 78 1015.4
20260507053011 58 162 0.0 0.0 0.00 0.68 0.00 71 1015.2
20260507051508 56 161 0.0 0.0 0.00 0.68 0.00 74 1015.1
20260507050004 54 167 0.0 0.0 0.00 0.68 0.00 78 1015.1
20260507044602 0 0.0 0.0 0.00 0.68 0.00 1014.8
20260507043100 0 0.0 0.0 0.00 0.68 0.00 1014.7
20260507041551 0 0.0 0.0 0.00 0.68 0.00 1014.6
20260507040047 0 0.0 0.0 0.00 0.68 0.00 1014.6
20260507034554 0 0.0 0.0 0.00 0.68 0.00 1014.5
20260507033043 0 0.0 0.0 0.00 0.68 0.00 1014.5
20260507031535 0 0.0 0.0 0.00 0.68 0.00 1014.5
20260507030030 0 0.0 0.0 0.00 0.68 0.00 1014.6
20260507024543 0 0.0 0.0 0.00 0.68 0.00 1014.7
20260507023020 0 0.0 0.0 0.00 0.68 0.00 1014.5
20260507021517 0 0.0 0.0 0.00 0.68 0.00 1014.6
20260507020013 0 0.0 0.0 0.00 0.68 0.00 1014.4
20260507014510 0 0.0 0.0 0.00 0.68 0.00 1014.4
20260507013002 0 0.0 0.0 0.00 0.68 0.00 1014.4
20260507011559 0 0.0 0.0 0.00 0.68 0.00 1014.4
20260507010111 0 0.0 0.0 0.00 0.68 0.00 1014.7
20260507004550 0 0.0 0.0 0.00 0.68 0.00 1014.6
20260507003045 0 0.0 0.0 0.00 0.68 0.00 1014.8
20260507001549 0 0.0 0.0 0.00 0.68 0.00 1014.8
20260507000037 0 0.0 0.0 0.00 0.68 0.00 1014.9
20260506234532 0 0.0 0.0 0.00 0.68 0.00 1014.9
20260506233030 51 134 1.0 3.0 0.00 0.68 0.00 96 1015.0